User: anonymous   Login
Location: Days
(41.3591°N, 106.7339°W)
Time: 22:57:25
(UTC+00:00)
Language:

Vanguard 1 - Orbit

View from above orbital plane
View from above orbital plane
View from above satellite
View from above satellite

Ground track
Ground track

The orbit data is extracted from the following two-line orbital elements,

1 00005U 58002B   22148.22218476  .00000344  00000-0  41934-3 0  9994
2 00005  34.2533 201.7727 1847286 306.4318  37.9476 10.84951997282342
Epoch (UTC): 28 May 2022 05:19:56
Eccentricity: 0.1847286
inclination: 34.2533°
perigee height: 649 km
apogee height: 3833 km
right ascension of ascending node: 201.7727°
argument of perigee: 306.4318°
revolutions per day: 10.84951997
mean anomaly at epoch: 37.9476°
orbit number at epoch: 28234

The dashed part of the orbit path shows where the satellite is in the earth's shadow,  

DLR